Wind_Speed
26 27 28 29 28 28 27 25 24 22 21 19 18 16 15 14 13 12 11 10 9 8 6 4 3 2 3 4 5 5 4 4 5 6 8 11 13 14 14 13 13 15 16 16 18 21 21 19 17 16 15 15 17 15 10 12 20 22 20 16 12 13 13 10 6 1 3 3 1 3 3 3 3 3 3 2 1 2 2 2 4 5 5 6 6 8 10 11
26 27 28 29 30 30 29 28 26 25 23 22 20 19 17 16 15 13 12 11 11 10 8 7 4 3 2 2 4 4 4 4 4 6 5 8 12 14 14 13 13 14 16 17 18 21 23 21 20 20 18 18 18 14 11 15 22 24 20 11 7 8 10 9 5 2 2 2 2 4 4 3 3 3 2 2 1 1 2 2 3 3 4 5 5 7 9 10
26 26 27 29 30 30 31 30 29 28 26 25 23 21 20 18 17 16 14 13 12 12 10 9 7 5 3 1 2 4 4 3 2 2 3 7 11 13 15 15 14 14 15 16 18 22 24 22 20 22 20 17 16 16 17 14 16 18 15 10 9 12 10 6 3 2 2 2 3 3 5 4 3 3 2 1 1 1 1 1 2 2 2 3 4 7 8 9
26 27 27 28 29 30 31 31 31 30 29 27 26 24 22 21 20 18 16 14 14 13 12 11 9 8 5 3 1 3 4 3 3 1 3 7 11 14 16 16 15 14 14 14 16 19 22 20 17 20 20 16 14 20 15 9 11 7 5 6 5 14 9 3 1 0 3 3 2 2 6 5 4 3 2 1 1 2 2 2 1 1 0 2 3 6 8 9
26 27 28 28 29 30 31 32 32 32 31 30 28 27 25 23 22 20 18 17 15 15 14 13 11 10 8 5 2 2 3 3 2 1 3 6 10 15 17 17 16 14 13 12 13 17 19 16 14 15 16 12 14 23 8 1 6 3 1 11 10 9 5 3 0 1 2 1 1 4 6 4 3 3 2 3 2 2 3 2 1 1 0 1 3 5 6 7
24 27 28 29 29 29 30 31 33 33 33 33 31 29 27 26 24 23 21 19 17 16 16 14 13 12 10 7 4 2 1 2 2 1 2 5 9 14 17 18 16 14 13 12 14 18 18 14 11 11 16 15 16 20 8 4 6 3 5 11 10 6 5 4 3 2 1 1 2 4 6 6 4 3 2 3 2 2 3 2 2 1 0 1 2 4 5 6
20 24 27 29 30 30 30 31 32 33 34 34 34 32 30 29 27 25 23 21 20 18 17 16 15 14 12 10 7 4 2 1 2 1 2 4 8 13 16 17 17 15 14 14 17 20 18 17 13 13 23 25 21 17 8 8 3 4 10 10 8 6 5 4 1 1 2 2 4 5 7 6 4 2 2 1 1 1 2 2 2 2 1 1 2 3 4 5
18 19 23 28 30 31 31 31 31 32 34 35 35 35 33 32 30 28 26 24 22 20 19 18 17 16 14 12 9 7 4 2 2 2 1 3 7 12 15 17 17 16 15 16 19 20 20 18 16 16 24 27 25 17 10 8 12 15 13 9 9 8 4 4 2 1 2 2 6 6 6 5 3 3 3 2 1 1 1 1 2 3 2 2 3 3 4 4
19 19 19 23 27 31 32 32 32 32 33 34 35 36 36 35 32 31 29 26 24 23 21 19 19 18 16 14 12 8 7 6 3 2 2 3 6 10 14 18 19 18 17 18 19 20 22 19 19 17 23 26 25 13 8 11 18 18 16 13 10 9 4 3 3 3 2 2 5 6 5 3 2 3 3 3 1 1 1 2 3 3 3 3 3 4 4 4
21 20 19 20 22 28 32 33 33 32 33 33 35 36 37 37 35 33 31 29 27 25 24 22 20 19 18 16 13 10 10 9 5 3 3 4 6 9 13 17 19 20 19 19 19 22 25 20 18 15 22 26 23 9 11 17 21 14 14 15 9 6 3 4 5 3 2 2 3 5 4 2 1 2 3 3 2 1 1 2 3 4 4 3 4 4 4 4
22 22 21 21 20 22 28 32 34 34 33 33 34 35 37 38 37 36 34 32 30 28 27 24 22 21 19 18 15 13 13 10 7 5 3 4 7 9 13 17 19 20 20 20 20 25 28 22 17 17 23 22 20 7 12 16 20 15 13 14 8 3 4 5 4 1 2 1 2 5 5 3 2 2 3 4 3 2 2 3 3 4 4 4 5 5 5 4
23 23 22 22 22 21 23 28 33 35 35 34 34 34 36 38 38 38 37 35 33 31 29 27 25 23 21 20 17 16 15 12 11 9 6 5 6 8 11 16 19 20 20 22 23 26 28 25 20 21 28 20 15 6 12 8 12 16 15 14 7 4 6 4 2 3 2 2 3 4 4 2 2 3 2 3 4 4 3 3 3 5 5 5 6 6 5 5
24 24 23 23 23 22 22 23 28 34 36 35 35 34 34 36 38 40 39 37 36 34 32 29 27 25 23 23 19 18 17 15 13 11 8 6 6 8 10 13 18 21 22 24 25 25 26 27 20 12 24 23 12 12 12 4 10 13 10 9 7 7 7 4 3 3 2 4 5 4 3 3 3 4 4 3 2 4 5 3 2 3 4 5 6 6 5 5
24 25 25 24 24 23 23 23 24 28 34 37 36 35 34 35 37 40 40 39 38 36 35 32 30 28 26 25 22 21 21 17 15 12 10 8 8 10 10 13 16 19 23 25 26 23 22 25 19 11 17 30 18 16 11 8 17 18 10 10 10 8 6 5 2 2 3 4 3 4 3 3 4 4 4 4 3 3 5 3 1 2 3 5 6 6 6 6
25 25 26 26 25 24 24 24 24 24 29 35 37 36 35 35 36 38 40 40 40 38 37 35 33 30 28 27 24 25 24 20 17 14 12 11 10 10 11 13 15 18 23 25 24 21 20 21 15 11 24 33 22 21 15 16 21 20 16 12 11 10 9 7 3 2 3 3 4 6 5 2 3 4 4 4 3 3 4 3 1 1 2 3 5 6 7 7
25 25 26 26 26 26 25 25 24 24 25 30 36 38 36 36 36 37 40 41 41 40 39 38 35 33 31 29 28 29 27 22 20 17 15 14 12 12 12 14 16 18 21 22 21 20 17 16 15 18 29 29 26 30 21 19 19 20 20 14 10 12 11 8 4 3 3 4 6 8 6 4 3 3 3 4 3 3 3 3 2 1 2 2 4 6 7 7
26 26 26 27 27 27 27 26 25 25 25 26 31 37 37 37 37 37 38 40 41 41 40 39 37 35 33 32 31 31 29 25 22 20 17 17 15 14 12 14 17 18 20 20 21 20 18 16 20 25 25 21 25 31 21 19 18 16 14 11 10 12 11 10 7 6 5 4 4 7 7 3 2 3 4 4 4 3 3 3 4 2 2 2 2 4 6 6
27 27 27 27 27 28 28 27 26 25 26 25 27 33 37 39 39 38 38 39 40 41 41 41 40 38 36 35 33 31 30 27 25 23 21 19 18 15 13 15 18 19 21 22 22 21 19 20 22 26 24 18 20 27 20 16 13 9 3 3 8 12 12 10 7 8 6 3 4 9 10 4 3 6 5 5 5 4 5 5 5 4 2 2 2 3 4 5
28 28 28 27 27 28 28 29 27 26 26 26 26 29 35 40 40 39 39 38 38 39 41 42 41 39 38 37 34 33 32 30 29 26 24 22 20 18 16 17 19 21 22 23 22 20 19 22 23 25 24 19 19 25 21 11 4 6 3 12 9 8 12 10 7 9 7 5 7 10 13 9 6 8 6 5 5 4 5 7 7 6 4 3 2 3 3 3
29 29 29 29 28 28 28 29 29 27 26 27 27 27 31 37 40 40 39 36 36 38 41 43 41 40 40 39 38 36 34 33 31 28 26 24 22 21 19 18 20 22 22 21 22 21 20 23 21 21 21 19 19 20 21 13 4 8 4 11 15 8 10 9 6 8 9 8 8 10 14 13 9 8 8 9 8 5 5 6 8 8 6 4 3 3 3 2
30 29 29 29 29 28 28 28 28 27 27 28 28 27 29 34 38 41 40 37 37 38 40 41 41 42 42 41 39 38 36 35 34 32 29 28 25 24 22 20 20 20 21 22 24 23 23 24 19 17 19 21 19 15 20 23 12 11 11 9 13 12 6 6 7 9 16 13 12 14 15 15 12 10 11 11 11 10 6 6 7 8 7 6 5 4 4 4
29 30 30 30 29 29 29 28 28 27 28 29 29 29 29 31 35 41 42 38 37 39 40 39 41 42 42 42 40 39 38 36 36 35 33 31 29 26 24 22 20 19 23 26 26 25 24 22 19 17 19 21 18 15 18 23 20 14 16 12 10 12 11 12 14 16 20 15 13 17 16 15 17 16 15 13 13 13 10 7 7 7 8 8 7 6 6 5
29 30 30 30 30 30 30 29 27 26 29 30 29 30 30 30 32 39 43 39 37 39 39 37 39 42 42 43 42 42 40 37 36 36 34 33 30 28 26 24 22 22 25 27 25 23 20 20 21 19 19 20 18 20 20 20 20 22 22 17 11 11 15 20 23 21 16 11 15 25 21 18 20 19 18 15 14 15 14 12 9 8 10 10 9 9 8 7
30 30 31 31 30 30 30 29 27 27 29 30 30 30 30 30 30 34 40 41 37 36 38 36 37 41 41 42 45 44 41 37 36 37 36 35 32 30 28 25 24 24 26 26 24 21 19 20 24 23 21 21 22 24 26 27 26 25 23 20 13 12 18 21 24 22 14 14 22 26 24 23 21 18 18 16 15 16 16 16 13 12 13 12 10 10 10 10
30 30 31 31 31 30 31 29 28 28 29 30 30 29 29 29 29 31 36 40 37 33 37 37 37 40 40 42 45 44 41 38 37 38 38 36 34 32 30 28 27 26 26 26 25 23 21 22 26 26 24 22 24 24 22 23 26 26 25 25 21 18 19 18 22 23 18 21 25 24 24 27 21 16 16 17 17 18 18 19 18 16 14 13 11 10 10 11
31 31 31 32 31 30 31 30 28 28 30 30 28 29 30 29 30 31 33 39 36 32 36 37 35 37 38 40 42 41 41 39 38 39 38 36 36 34 32 31 29 27 26 27 27 24 23 26 27 28 26 23 21 22 23 20 21 26 27 30 33 27 19 16 20 26 21 20 25 27 26 29 26 19 19 19 17 19 21 22 21 19 16 15 13 11 11 11
31 31 31 32 32 30 30 31 30 28 30 29 27 29 31 30 31 31 31 35 33 30 34 34 32 33 34 37 40 40 40 39 40 41 39 37 38 37 35 33 30 29 28 29 30 26 25 28 28 27 28 25 21 20 22 20 20 25 22 24 35 30 19 16 22 25 21 19 22 26 28 29 29 25 22 21 19 20 23 23 23 21 18 17 16 14 12 11
32 32 32 32 33 30 29 32 32 29 29 28 26 29 30 30 30 29 30 32 29 29 32 30 29 30 32 37 41 41 39 38 40 41 39 38 38 39 37 35 32 31 31 31 30 26 26 29 29 27 27 26 24 21 21 19 24 24 16 13 22 24 17 11 21 24 22 21 20 22 25 27 28 23 21 23 21 19 20 22 23 22 19 18 19 18 15 12
33 33 32 32 34 31 28 31 33 30 28 27 27 29 30 29 29 29 30 29 23 24 28 27 26 26 32 38 41 40 39 39 40 39 39 38 38 39 37 35 34 32 33 32 30 27 27 29 28 25 26 25 25 26 28 25 25 21 21 17 18 23 20 15 17 20 20 21 21 22 24 24 25 22 23 25 20 17 19 21 21 21 20 19 20 21 19 15
33 34 33 32 34 33 29 30 33 30 28 28 28 29 30 30 29 30 31 26 19 21 25 25 24 23 29 36 39 37 36 39 39 39 41 39 38 39 37 36 36 36 36 33 31 31 27 25 25 24 24 23 23 27 28 26 22 21 23 20 21 25 24 26 29 25 21 23 24 22 19 19 24 27 27 24 17 16 20 22 21 21 22 22 22 23 21 16
34 35 34 33 33 33 30 32 33 30 29 30 30 30 31 30 30 30 27 17 17 23 23 21 22 24 27 33 36 33 32 36 38 40 42 41 40 41 40 41 41 39 40 37 34 33 29 23 23 25 24 21 21 23 23 25 26 27 21 15 15 18 20 28 36 35 31 28 28 27 24 22 25 29 28 21 17 19 22 24 23 21 21 24 23 22 21 15
34 35 35 34 33 32 32 34 32 30 30 30 30 31 32 31 31 30 21 13 18 23 20 19 21 22 24 30 32 29 29 34 37 39 42 42 42 42 43 44 43 41 42 39 34 33 32 28 24 27 28 24 22 22 23 27 28 30 24 20 19 19 22 29 34 35 35 35 36 34 29 27 25 26 28 22 19 22 23 22 21 20 20 21 23 24 25 19
34 35 35 35 33 31 34 36 33 31 31 31 31 32 33 34 32 26 19 18 21 17 12 13 16 16 20 27 28 25 28 33 34 36 41 42 41 41 43 43 41 41 40 37 34 32 32 30 28 28 29 26 26 30 29 27 31 34 30 28 27 24 23 28 34 33 31 37 42 36 30 29 23 22 28 26 23 23 22 20 20 23 21 17 17 20 21 18
35 35 35 35 33 32 35 37 34 32 32 32 32 33 36 35 30 23 19 20 18 17 14 5 8 15 18 22 24 23 26 30 31 32 38 42 42 41 43 42 41 40 37 36 37 35 33 33 31 30 31 27 28 33 29 23 29 33 28 29 34 32 24 23 30 27 19 22 29 26 22 21 17 17 23 26 24 22 21 21 23 26 25 22 19 15 16 17
35 35 33 34 34 33 35 37 35 33 33 32 33 35 37 34 26 21 18 17 17 21 18 8 4 19 24 21 22 22 25 27 27 29 35 41 42 42 43 43 41 40 37 36 36 35 33 29 24 25 30 27 25 27 24 20 22 23 23 29 35 36 26 20 22 18 11 11 15 17 17 17 18 20 22 23 24 23 24 26 28 28 30 31 27 21 20 23
35 34 32 32 34 35 36 37 36 35 33 34 35 36 35 31 25 20 16 19 23 23 18 10 11 22 27 26 23 21 24 25 24 26 32 39 41 40 41 42 41 40 39 38 35 34 30 24 18 23 29 27 24 25 25 25 23 22 28 35 33 28 23 19 20 19 18 16 15 16 17 18 21 23 24 25 25 25 26 28 30 30 31 33 32 30 28 27
34 33 32 31 34 37 38 37 37 36 35 35 36 34 32 29 25 20 19 28 30 27 23 15 16 24 24 26 24 18 22 25 23 27 31 36 40 39 39 39 41 40 39 38 34 31 30 27 24 29 31 27 23 24 26 26 26 28 33 34 29 25 23 22 23 24 24 22 19 16 17 19 20 21 24 27 26 25 25 26 29 31 31 32 32 31 28 27
34 32 31 32 35 38 38 37 37 37 36 36 35 32 30 28 24 20 23 35 36 31 26 20 22 27 25 24 24 19 21 26 27 29 32 35 38 37 37 37 39 40 37 35 32 28 27 26 25 26 25 23 20 22 29 27 24 29 33 26 20 21 28 30 27 24 23 22 19 15 15 18 20 20 23 25 26 26 22 22 26 29 29 30 29 25 21 23
33 32 31 33 36 38 38 37 38 38 37 36 33 30 28 26 23 20 27 37 38 33 28 28 28 28 26 22 22 21 21 25 28 29 33 35 35 35 35 33 36 39 35 33 33 29 26 24 22 22 20 21 23 22 32 32 26 27 28 22 16 15 21 27 27 23 23 23 21 20 19 20 21 23 24 25 26 26 24 25 27 28 27 27 26 22 20 23
33 31 32 34 36 36 37 38 39 39 38 34 31 29 27 25 23 23 30 38 41 37 33 34 33 27 26 28 26 22 22 23 26 29 32 34 33 33 34 30 32 35 34 34 35 31 26 24 22 21 23 27 30 26 29 33 31 29 28 25 22 16 12 19 24 24 24 23 23 23 23 23 23 24 24 25 27 29 29 28 28 28 29 29 28 26 25 27
33 32 33 35 35 36 38 39 39 39 37 33 31 29 26 25 24 25 32 40 42 38 34 37 37 29 27 30 28 24 23 24 24 28 30 32 31 31 32 29 28 32 34 36 39 37 31 27 22 22 25 30 33 28 26 27 29 31 31 32 30 24 19 22 25 24 24 23 20 20 23 25 24 22 22 24 27 29 30 30 29 30 32 33 32 28 28 30
33 33 35 35 34 35 38 40 40 39 37 33 31 29 26 25 25 27 34 41 42 37 34 37 37 29 27 31 29 30 32 27 25 28 29 30 31 28 27 26 24 29 33 38 42 39 33 29 25 26 28 29 29 27 26 22 21 30 34 35 38 35 28 26 24 21 20 21 20 19 24 26 24 23 23 24 26 28 29 30 29 30 32 34 34 31 30 30
33 33 35 34 34 34 36 38 39 39 37 33 30 30 28 27 27 28 34 41 43 38 35 37 37 33 30 33 35 36 37 31 26 29 30 29 30 26 22 23 23 25 31 38 42 41 35 32 30 27 27 28 25 23 26 24 19 24 30 30 32 33 26 22 21 20 18 18 18 18 24 28 27 26 25 25 27 28 29 30 31 33 35 35 35 33 30 28
33 33 35 34 34 35 36 38 38 38 37 33 31 30 29 28 28 29 33 42 45 40 37 36 36 34 29 30 37 40 37 31 28 29 29 28 28 26 20 21 24 24 30 37 42 42 37 36 35 27 26 30 27 22 26 31 27 25 28 27 26 27 25 24 25 25 23 21 20 19 23 28 30 29 28 29 31 31 32 34 35 36 37 37 35 32 30 29
33 33 35 36 35 36 37 37 38 38 37 33 31 30 30 29 30 30 33 43 48 41 36 33 30 28 26 30 40 42 41 37 30 30 30 27 27 27 21 20 24 25 27 33 39 42 37 36 38 32 31 35 33 26 28 34 32 27 30 34 31 28 29 28 27 27 26 25 24 23 25 27 30 32 32 33 35 33 33 35 37 38 38 38 35 32 29 27
33 33 35 37 37 36 38 38 38 38 37 35 32 32 32 30 30 31 31 40 49 44 35 31 30 28 28 34 42 43 43 41 32 31 34 28 26 30 26 23 25 25 25 29 34 37 38 37 37 33 33 36 32 27 28 32 33 29 26 33 37 33 32 30 28 26 24 24 25 27 30 32 32 33 34 35 34 33 33 36 39 41 39 36 32 28 26 25
34 35 37 38 37 37 38 37 37 38 37 36 33 33 34 32 32 32 31 37 47 45 37 33 33 33 32 36 44 45 42 40 34 33 37 33 32 37 35 29 28 27 27 30 31 32 35 39 38 33 32 37 34 28 27 30 33 30 23 25 31 31 30 32 31 31 28 25 26 28 30 32 33 33 34 34 34 35 36 37 38 39 40 40 35 27 24 24
35 36 37 37 37 38 37 36 36 39 40 38 35 34 33 33 34 33 32 34 39 40 40 42 40 36 36 39 45 47 41 38 37 33 32 37 40 41 38 34 32 32 32 36 38 36 35 39 41 37 34 37 38 34 31 28 29 28 24 22 26 27 27 33 33 33 32 29 27 27 27 28 30 32 35 36 38 40 42 42 40 37 36 36 33 26 24 26
35 35 37 38 38 38 36 33 34 39 42 41 38 36 34 34 33 32 32 33 35 36 41 45 42 38 39 42 45 44 37 36 40 34 30 40 46 42 36 34 34 34 33 37 40 40 40 41 41 42 41 39 39 39 37 31 27 28 27 24 24 25 25 30 34 35 36 32 28 26 27 27 30 34 37 39 41 44 44 43 39 33 29 28 28 25 26 29
36 36 37 39 38 36 36 33 33 37 41 41 38 37 37 37 34 34 36 36 34 34 38 42 42 37 41 46 44 39 33 33 40 40 35 42 49 46 39 36 37 36 33 35 39 39 42 44 42 42 44 42 40 39 39 38 32 29 30 29 28 26 23 25 31 35 37 36 33 32 32 31 32 34 36 39 43 45 45 44 42 38 34 31 30 29 29 31
37 36 37 39 38 36 35 34 34 36 39 39 37 36 37 37 36 38 42 39 34 31 31 36 41 39 42 48 45 40 38 36 39 44 43 45 49 49 41 36 39 39 35 38 42 42 43 45 45 43 41 40 39 34 34 37 34 30 29 29 28 26 23 23 25 29 32 34 35 35 35 35 34 34 35 38 41 43 45 47 47 45 41 37 34 33 33 34
38 37 37 39 38 36 35 34 34 37 41 42 41 38 36 36 37 40 44 42 36 31 26 29 41 46 46 49 47 44 45 43 43 49 48 46 49 50 43 34 35 37 37 39 45 47 46 45 45 45 42 39 38 33 30 32 31 31 32 31 28 27 28 29 28 27 29 32 34 34 33 33 36 38 39 40 43 45 47 49 50 49 46 39 34 32 33 35
Wind_Direction
251 248 245 243 240 236 233 231 230 229 227 226 228 230 234 238 239 237 236 236 235 235 229 215 188 136 95 78 75 77 92 119 155 186 194 187 181 183 182 175 174 173 171 163 151 151 151 151 149 141 137 129 116 117 117 82 67 59 47 36 24 4 347 336 335 335 331 336 39 36 41 32 22 26 9 8 40 92 88 65 82 92 80 70 80 88 90 95
253 252 249 246 243 241 238 235 232 230 228 227 226 227 229 233 237 237 235 233 233 234 232 225 211 187 143 88 79 78 88 113 167 198 196 183 184 183 179 175 177 176 173 166 156 153 154 156 153 147 141 136 136 124 96 79 67 54 40 29 11 341 330 331 343 5 314 317 14 19 23 5 12 23 349 345 2 56 96 90 98 101 74 63 78 84 86 90
254 253 251 249 247 244 241 238 236 233 230 228 226 226 226 229 233 235 234 231 230 230 230 227 219 208 197 141 90 78 83 95 139 191 164 175 185 182 178 180 179 179 177 168 159 156 157 157 156 149 138 149 150 97 67 64 58 42 29 22 346 308 298 304 313 342 302 302 342 16 30 16 21 12 332 356 340 315 157 156 131 111 76 69 80 83 82 83
256 253 252 251 249 247 244 241 239 236 234 231 228 226 225 226 229 232 232 230 229 227 228 227 222 216 209 194 137 83 86 86 69 108 166 174 182 185 183 184 184 184 179 171 160 155 157 155 160 156 142 158 138 85 64 51 60 42 46 92 310 295 292 294 190 335 297 293 322 54 55 43 23 5 330 326 292 260 246 219 189 203 96 88 82 83 83 82
259 256 253 251 249 248 247 245 241 238 236 234 231 228 226 225 227 229 230 229 228 225 225 225 224 221 215 208 186 103 98 103 76 109 175 175 181 187 187 188 190 188 179 171 152 148 157 154 172 170 135 142 110 88 97 55 62 9 329 173 216 277 288 299 338 97 295 291 39 55 52 45 20 4 328 299 266 227 245 240 189 198 253 90 87 85 85 82
264 259 255 253 250 248 247 246 245 241 238 236 234 231 228 226 226 227 228 228 227 224 224 222 223 223 219 213 198 185 149 120 85 102 167 174 181 189 192 192 192 190 178 163 145 147 153 146 179 176 113 103 89 80 112 147 83 21 283 218 222 274 269 284 3 32 280 261 18 27 25 33 36 23 347 305 246 197 226 227 178 162 161 104 95 88 86 84
282 267 259 255 253 250 247 245 245 244 241 238 235 233 231 229 227 226 227 226 226 224 224 221 221 222 220 215 203 209 216 135 82 87 181 177 180 189 194 194 192 190 179 160 150 148 140 134 159 144 104 97 88 70 94 152 171 287 279 258 241 260 281 286 327 307 249 311 354 12 18 28 33 25 34 323 260 151 213 203 149 129 107 85 76 83 86 86
302 287 271 260 254 252 249 246 244 244 244 241 237 235 233 231 228 227 226 226 225 224 224 221 219 220 220 216 208 208 214 195 137 103 196 186 178 184 190 193 191 190 180 162 158 152 137 145 168 136 103 100 99 80 88 169 248 279 275 261 244 244 294 303 248 208 220 17 0 355 13 33 28 14 40 12 8 114 194 161 108 100 73 57 58 69 78 84
304 302 292 274 261 254 251 248 245 243 242 243 241 237 234 232 230 228 227 226 225 224 224 222 218 219 219 217 211 207 215 211 187 134 174 192 180 180 186 190 190 190 182 170 166 156 142 161 184 140 107 108 105 103 145 204 254 273 269 267 267 254 267 282 222 177 211 20 3 342 358 41 47 18 30 25 23 121 135 85 79 81 71 57 60 67 69 80
300 301 301 294 277 262 254 250 247 244 241 241 242 240 237 234 232 229 227 227 226 224 224 223 219 218 216 218 210 206 218 213 202 183 171 185 184 182 186 189 191 190 184 177 169 157 149 165 181 125 107 120 105 106 200 227 247 256 271 266 255 240 232 229 210 187 247 9 1 331 337 351 17 37 62 64 52 89 97 72 72 72 64 57 60 63 62 69
297 297 297 298 294 279 263 253 249 246 243 240 240 241 239 237 234 231 228 227 226 225 225 223 221 218 215 217 208 206 217 205 200 207 187 187 186 186 187 188 193 193 187 179 171 164 161 177 183 110 99 127 113 112 224 231 231 238 267 256 233 218 221 212 210 258 276 338 340 315 319 311 314 1 53 64 46 42 65 54 71 73 57 57 61 57 51 53
294 294 294 294 295 293 280 264 253 248 245 242 239 239 239 239 237 234 230 227 227 225 225 224 222 219 215 214 208 208 215 202 202 205 193 195 190 191 191 191 193 193 189 180 178 177 175 189 187 119 103 120 115 157 237 235 213 235 249 238 225 205 212 218 258 284 268 316 314 297 309 326 335 340 2 46 39 27 27 27 56 75 72 68 65 61 53 48
294 292 291 291 291 292 291 281 264 253 247 244 241 238 238 238 238 237 234 229 227 226 225 224 223 220 215 214 206 208 215 207 207 208 197 194 188 194 196 197 196 192 190 187 189 188 184 192 200 153 125 132 146 195 220 215 198 225 236 220 216 197 207 229 270 290 306 324 318 311 334 12 2 339 336 343 23 22 8 358 23 58 74 76 70 68 66 63
294 292 290 289 288 288 289 289 280 264 252 246 243 240 238 238 237 236 236 233 229 227 226 224 223 220 216 214 205 207 215 208 207 212 209 201 190 195 194 198 201 195 191 194 200 197 189 195 220 247 149 139 156 181 191 225 215 226 241 212 195 185 225 244 248 301 300 311 315 307 325 24 6 356 8 347 322 343 347 342 11 28 45 71 74 70 74 71
294 292 290 287 287 286 285 286 286 278 263 251 245 242 240 239 237 235 235 235 232 228 227 225 223 221 218 214 206 208 215 210 204 207 212 211 200 196 193 194 201 200 195 199 207 203 193 196 221 228 152 144 153 156 174 228 223 231 240 215 182 177 219 244 244 288 281 281 290 294 309 9 357 354 20 7 332 323 337 341 351 245 344 53 75 67 68 68
292 290 289 287 285 284 284 283 284 284 276 260 250 244 242 240 238 235 233 234 234 231 228 226 224 221 219 214 208 209 213 210 204 204 208 214 207 200 195 191 195 200 202 204 208 212 208 193 195 186 160 157 163 153 171 218 219 226 226 214 192 179 204 232 240 278 242 235 267 280 294 316 316 334 352 350 330 314 330 336 344 256 272 355 62 62 61 63
292 289 288 286 285 283 282 282 281 282 281 272 258 248 243 241 239 236 233 232 233 232 230 227 224 222 220 217 213 211 212 208 205 205 206 213 213 207 200 192 194 197 203 205 202 211 220 196 184 185 177 178 169 155 177 211 203 211 211 216 215 188 202 225 234 262 240 215 248 261 279 309 308 315 326 327 320 311 322 316 322 323 255 301 17 52 60 62
292 289 287 284 283 282 281 281 280 281 280 277 268 254 246 242 239 237 235 231 231 231 230 228 226 223 221 218 215 212 212 209 207 206 206 211 214 211 204 195 194 194 198 204 201 204 211 197 188 188 190 200 177 161 184 202 187 187 100 356 247 208 209 213 219 255 255 234 249 267 285 297 273 292 304 317 319 314 315 304 298 311 315 302 328 16 42 59
291 289 286 283 281 280 279 279 278 280 280 278 273 263 251 244 240 238 235 233 232 230 228 227 227 225 223 221 217 213 211 209 207 208 207 210 213 212 207 198 194 196 199 203 203 205 208 201 199 198 199 210 189 167 172 172 165 202 77 12 323 237 224 218 219 254 258 246 246 262 277 281 275 284 296 299 298 295 296 297 295 301 313 309 303 333 349 39
291 288 286 283 281 278 277 276 276 278 280 279 275 269 258 248 242 239 235 236 236 232 228 226 226 226 224 222 219 214 210 209 207 208 208 209 213 213 210 204 198 199 201 201 200 204 211 213 211 206 206 208 193 166 164 179 266 260 255 353 335 289 237 225 221 260 280 270 256 262 270 281 279 272 289 290 282 278 270 281 294 293 294 297 286 283 300 333
291 287 285 283 280 277 275 274 274 276 278 278 275 271 263 253 246 240 235 234 236 233 229 225 224 225 225 223 222 218 212 208 206 207 209 210 211 212 212 210 206 203 198 196 199 203 209 215 214 207 207 210 200 164 163 184 210 266 277 310 314 305 279 240 223 273 299 282 252 259 267 276 279 277 287 289 287 286 266 255 277 287 289 291 283 261 262 286
292 288 284 282 280 277 275 272 272 275 275 274 274 272 266 258 249 243 236 232 234 235 230 225 222 224 225 224 223 222 217 209 206 207 208 210 211 212 212 211 209 204 198 196 200 206 207 207 207 202 206 211 198 166 167 177 175 212 259 280 292 300 299 275 267 285 294 275 268 288 283 271 275 282 283 281 288 287 277 266 266 278 281 280 279 265 253 263
290 288 284 282 280 277 274 272 271 273 272 271 272 271 269 264 255 246 239 232 232 235 233 226 223 222 223 223 222 222 220 212 208 208 209 211 212 212 212 211 208 202 201 205 207 211 208 200 201 202 209 208 179 156 164 167 163 188 229 261 280 286 287 281 280 287 280 263 299 312 301 281 275 280 280 277 286 288 286 285 278 277 276 270 271 270 265 261
288 286 284 281 280 277 274 271 270 270 269 269 270 271 273 272 265 255 246 237 231 235 235 229 225 223 221 223 223 222 220 215 210 209 210 211 211 212 212 210 209 206 205 209 211 214 209 196 199 205 212 203 171 158 164 161 159 175 208 242 252 261 278 280 275 277 275 279 301 307 301 295 283 274 278 281 288 293 290 288 286 285 280 271 268 272 273 266
284 282 282 280 279 278 274 271 269 268 267 268 270 273 274 272 267 259 251 241 232 234 236 229 225 224 222 223 224 223 220 216 213 212 211 210 212 212 212 210 209 208 208 210 210 211 206 196 201 208 212 205 184 180 185 172 165 174 200 219 214 226 256 270 272 274 282 292 298 298 298 303 293 266 270 280 286 291 287 282 284 287 283 276 272 273 274 270
282 280 279 278 277 278 276 271 268 266 266 266 268 271 270 269 264 257 251 243 233 232 237 233 227 226 225 225 225 224 221 217 214 215 212 210 213 212 211 212 210 208 207 210 210 208 204 197 201 209 208 204 201 202 206 198 185 189 204 211 205 210 219 226 257 271 283 295 293 291 297 304 298 284 283 282 277 286 287 283 284 286 281 278 277 273 268 271
279 277 276 276 275 276 276 273 268 264 264 265 267 269 268 268 267 261 255 249 237 231 236 235 229 227 227 228 227 223 222 218 215 217 213 210 214 213 212 212 210 209 207 209 211 206 203 200 200 211 211 204 207 210 206 209 213 206 207 207 201 198 192 211 249 264 279 287 280 287 297 299 295 291 290 282 275 286 292 291 290 287 279 276 278 272 264 265
276 274 273 273 273 272 274 274 269 263 263 264 265 266 267 268 268 264 257 252 243 231 232 233 229 227 227 228 227 222 219 217 216 217 214 211 215 216 214 213 211 210 210 212 212 205 204 207 200 205 217 213 205 194 180 204 233 218 184 171 192 189 177 219 255 257 268 272 265 281 293 292 290 288 283 279 281 295 301 298 292 286 279 274 273 270 262 262
275 272 270 270 272 271 271 272 269 264 262 262 261 261 263 263 263 262 255 250 243 232 231 231 227 226 228 228 228 224 220 217 214 215 214 211 215 217 215 215 213 210 213 215 211 202 203 213 206 200 215 220 209 188 174 195 225 205 165 161 197 202 184 189 225 238 249 250 251 272 283 287 291 287 279 279 286 300 303 300 293 287 283 274 268 268 267 267
274 270 268 268 269 269 269 269 267 264 261 260 258 256 258 259 258 258 254 247 237 228 226 226 223 223 228 230 229 226 224 222 215 214 213 210 213 217 215 216 214 211 211 213 213 204 197 213 220 212 216 222 213 195 189 203 205 182 172 178 200 212 204 193 197 209 224 228 235 248 258 272 280 276 273 278 293 305 300 297 295 290 285 278 271 271 275 274
273 269 267 265 265 267 268 266 264 263 261 258 256 254 254 256 254 253 254 246 228 225 223 219 218 221 226 231 231 226 226 225 219 216 214 209 210 213 213 215 214 213 211 209 212 207 193 202 224 222 215 217 211 195 204 221 200 177 177 179 193 215 220 208 200 202 213 219 224 229 230 240 256 266 273 282 297 300 293 291 290 286 280 276 272 271 278 278
274 269 266 264 262 264 265 264 263 261 259 257 256 253 251 252 250 248 249 233 219 222 224 222 221 222 228 235 233 227 226 226 222 220 217 211 210 211 213 216 215 215 216 211 209 210 203 200 212 219 211 207 206 198 213 226 201 180 181 188 206 225 228 225 219 215 218 222 223 225 232 243 256 272 281 287 291 286 287 291 290 287 279 272 272 276 280 280
274 270 266 263 260 259 260 262 261 259 258 257 255 252 249 248 248 248 241 226 218 210 207 231 241 235 232 239 239 229 228 229 224 224 222 215 212 213 214 218 218 218 221 217 208 210 213 206 205 214 215 209 206 207 215 216 198 189 188 189 204 222 223 222 227 230 238 238 230 228 241 254 264 273 271 271 274 276 283 289 287 285 282 279 283 283 283 287
274 271 266 262 257 254 255 259 259 257 257 257 254 251 248 246 247 246 234 223 214 189 173 187 270 262 250 243 240 231 227 231 227 225 228 221 212 213 214 215 218 218 220 220 213 210 212 210 208 213 218 214 210 215 217 208 199 196 192 191 199 208 213 218 225 234 253 249 234 234 251 263 271 273 264 262 268 274 274 272 272 276 282 293 297 285 280 290
273 272 266 260 255 250 251 256 257 256 256 256 254 250 246 245 245 242 228 209 188 174 164 137 241 264 267 257 246 236 226 229 229 222 228 228 217 212 215 214 216 216 216 218 219 216 212 209 213 221 223 220 218 220 208 190 198 204 206 209 203 199 206 221 226 238 274 266 238 246 266 279 279 274 272 270 272 274 268 264 268 275 285 296 302 298 295 296
272 272 268 259 252 248 248 252 254 254 254 254 253 249 246 246 244 238 214 184 168 158 150 145 202 237 259 265 259 244 224 222 227 221 224 232 225 215 216 216 215 216 216 215 217 217 208 195 205 226 228 226 223 216 198 184 198 215 218 222 218 207 208 223 236 256 277 264 242 244 251 259 265 266 270 273 274 273 271 272 275 279 286 296 303 307 307 303
271 272 268 258 250 246 246 248 251 253 253 253 253 249 247 245 240 231 194 171 167 160 153 164 198 209 231 258 263 249 225 213 216 220 223 234 233 221 217 218 216 216 218 217 217 215 206 194 205 222 225 230 229 213 200 193 201 218 222 227 238 232 214 213 230 251 263 260 257 254 242 242 256 264 264 266 271 275 279 283 281 280 284 292 300 304 304 303
270 270 267 257 250 246 244 246 249 251 252 252 251 248 246 242 237 225 188 173 174 170 170 190 206 196 203 241 260 254 230 212 210 218 222 233 239 229 222 220 217 216 217 219 217 212 206 202 216 229 226 234 239 210 199 199 205 222 228 229 239 231 213 208 215 229 243 250 257 258 248 249 259 263 261 262 267 272 277 280 277 276 280 288 295 301 306 310
268 269 264 256 250 245 243 244 246 248 250 250 249 248 245 240 235 216 187 182 183 179 182 193 196 189 187 212 244 254 241 219 211 218 224 231 238 235 228 223 221 218 212 213 213 208 205 201 214 242 244 245 251 220 197 197 200 211 217 220 230 224 213 214 216 225 237 242 245 246 243 244 248 252 257 261 264 267 270 270 270 271 277 284 287 287 293 301
266 266 261 255 250 245 242 242 244 246 248 249 250 248 243 237 229 208 190 191 192 188 186 183 185 194 191 192 210 233 248 238 216 216 228 232 235 238 235 228 224 220 210 206 204 200 198 191 198 235 246 242 249 237 207 203 210 210 199 203 226 230 216 224 233 241 245 245 250 249 241 241 248 253 255 256 258 262 265 265 269 274 278 281 279 276 281 290
263 263 259 255 250 244 240 239 241 245 246 247 248 245 240 235 223 204 194 196 198 195 188 183 186 196 191 185 193 207 230 247 233 220 228 234 236 239 238 233 226 220 210 201 199 198 193 183 193 231 238 234 242 245 230 222 230 230 207 193 204 212 216 227 238 247 248 250 255 247 238 245 254 257 253 250 253 258 263 268 274 279 281 282 281 280 284 290
261 260 259 257 252 245 241 239 239 241 242 243 246 243 237 231 218 204 198 198 198 194 190 189 187 184 183 186 193 199 206 220 231 232 232 237 242 242 239 239 232 221 212 201 200 205 196 184 200 228 236 239 244 247 248 242 234 232 221 203 196 200 212 222 230 244 248 248 252 241 239 248 254 256 256 256 260 264 270 276 278 279 280 281 283 285 287 291
258 259 258 256 251 245 243 241 239 241 241 240 243 241 233 226 215 206 201 199 197 194 194 195 189 187 193 191 191 197 199 197 206 225 236 240 246 250 244 237 234 224 212 202 200 205 198 186 198 220 235 243 244 239 245 249 236 222 220 217 209 202 198 201 219 241 244 241 245 235 233 244 250 255 259 263 269 273 274 276 277 278 280 280 283 286 288 290
255 256 257 255 249 244 241 239 238 241 239 238 241 237 231 226 215 208 203 200 199 196 194 195 192 195 204 196 188 192 200 199 193 203 224 235 241 251 249 230 230 228 213 202 199 202 200 188 188 204 222 225 223 219 228 239 242 224 208 212 224 222 211 202 208 221 229 239 246 236 233 245 253 257 262 265 267 268 269 270 271 273 276 280 283 286 288 290
253 253 253 252 248 242 239 237 237 238 235 234 237 233 228 225 216 211 207 201 200 197 192 192 194 201 209 199 190 190 198 204 195 187 204 221 226 238 245 229 227 229 216 205 199 201 206 196 188 197 207 211 216 215 215 225 235 232 213 203 208 221 227 223 216 215 221 232 239 237 238 249 257 259 261 263 265 266 271 275 277 276 276 279 282 284 285 284
250 248 249 249 248 243 238 236 235 235 231 230 232 228 225 222 216 214 211 205 203 198 192 194 201 210 213 198 191 192 196 203 201 185 188 202 211 219 229 229 228 227 215 207 202 202 208 205 198 203 210 214 221 216 209 216 225 233 229 209 205 215 221 225 232 236 235 235 238 240 239 243 251 257 259 263 266 270 276 281 284 283 282 282 284 285 284 278
247 246 247 249 249 245 240 236 234 230 226 227 228 226 223 220 215 212 211 208 206 203 201 204 207 211 207 192 191 195 195 200 204 190 184 194 201 205 210 213 219 224 211 201 202 205 211 212 208 209 212 214 216 210 208 218 224 230 238 224 220 226 221 221 238 253 258 259 257 254 250 248 252 256 260 264 268 271 275 277 277 277 276 279 282 284 284 281
247 246 247 247 247 245 241 240 239 232 224 222 223 222 222 222 217 211 208 205 202 208 215 212 207 208 200 187 189 195 197 200 203 195 190 196 197 200 205 200 204 218 211 199 203 204 206 215 217 216 216 213 209 207 208 217 222 224 232 239 242 243 227 217 226 240 247 251 255 257 258 258 259 260 263 267 269 270 271 272 273 271 268 271 275 278 284 285
246 243 244 244 243 243 240 240 242 236 226 220 219 217 217 221 219 210 206 202 199 210 222 214 206 208 205 195 192 198 204 207 207 204 199 196 194 196 201 196 199 214 212 203 209 209 204 211 218 220 221 216 208 205 204 207 214 214 214 219 231 239 232 221 220 223 226 230 238 249 257 261 263 266 268 271 272 271 272 273 275 272 263 261 265 273 284 287
244 240 241 241 239 239 238 235 236 235 227 222 221 217 215 217 215 206 202 204 202 209 219 215 205 202 205 202 199 204 213 218 219 216 205 194 191 191 195 198 198 206 210 208 215 218 212 211 213 216 221 219 212 211 209 205 206 210 208 204 208 220 228 225 224 225 229 233 237 243 251 256 261 267 268 270 272 274 275 275 275 273 269 266 270 276 283 286
243 239 238 240 237 235 235 231 229 229 225 222 221 219 218 217 213 207 204 204 204 206 213 213 204 198 201 201 201 207 214 217 222 220 206 193 189 186 190 199 197 197 203 210 216 221 220 217 215 214 217 214 208 213 219 215 214 218 214 207 210 221 229 229 228 232 240 247 246 245 248 250 254 261 264 264 267 270 272 273 274 274 276 279 282 280 277 278
242 238 235 237 235 231 231 228 227 226 219 217 218 216 215 218 216 213 208 205 205 207 209 207 200 197 198 200 202 208 212 213 218 215 202 189 185 185 187 193 196 194 194 201 213 220 221 221 217 214 215 209 201 204 213 217 225 232 226 217 214 219 226 229 230 236 245 249 249 250 253 251 250 255 259 261 263 265 266 268 271 274 277 282 283 277 272 273
Height
5903 5903 5904 5905 5906 5906 5907 5907 5908 5909 5910 5911 5911 5912 5912 5913 5913 5914 5914 5915 5915 5915 5915 5916 5916 5915 5915 5916 5915 5915 5915 5915 5915 5914 5914 5914 5914 5915 5915 5916 5916 5917 5919 5921 5922 5924 5924 5925 5925 5927 5929 5930 5931 5933 5934 5932 5930 5931 5932 5931 5929 5930 5932 5933 5932 5932 5931 5931 5932 5931 5931 5931 5931 5932 5932 5932 5931 5931 5930 5930 5930 5930 5929 5929 5929 5929 5928 5929
5901 5901 5902 5902 5903 5904 5905 5906 5907 5907 5908 5909 5910 5910 5911 5912 5912 5913 5913 5914 5914 5915 5915 5915 5915 5915 5915 5915 5916 5915 5915 5915 5914 5914 5914 5914 5914 5915 5915 5916 5916 5917 5918 5920 5922 5923 5924 5924 5925 5926 5929 5931 5931 5932 5932 5932 5931 5932 5935 5935 5932 5931 5933 5934 5933 5932 5932 5932 5932 5933 5933 5933 5933 5933 5933 5933 5933 5932 5932 5931 5931 5931 5930 5930 5930 5930 5929 5929
5898 5899 5899 5900 5901 5902 5903 5904 5905 5906 5906 5907 5908 5909 5910 5910 5911 5912 5912 5913 5914 5914 5914 5915 5915 5915 5915 5915 5915 5915 5915 5915 5914 5914 5914 5914 5914 5915 5915 5916 5916 5917 5918 5920 5922 5923 5924 5925 5926 5926 5927 5931 5931 5929 5932 5933 5933 5934 5937 5937 5934 5933 5935 5935 5933 5932 5932 5933 5933 5934 5934 5934 5933 5934 5933 5933 5933 5933 5934 5933 5932 5931 5931 5931 5931 5931 5930 5930
5895 5896 5897 5897 5898 5899 5900 5901 5903 5904 5905 5905 5906 5907 5908 5909 5909 5910 5911 5912 5913 5913 5914 5914 5915 5915 5915 5915 5915 5915 5915 5915 5914 5914 5914 5914 5914 5915 5915 5916 5916 5917 5918 5919 5922 5923 5925 5926 5927 5926 5925 5930 5929 5927 5933 5936 5936 5938 5940 5939 5936 5935 5935 5934 5934 5933 5933 5933 5934 5935 5935 5934 5934 5935 5934 5934 5934 5934 5934 5934 5933 5932 5932 5932 5932 5932 5931 5931
5892 5893 5894 5894 5895 5896 5897 5899 5900 5901 5902 5903 5904 5905 5906 5907 5907 5908 5910 5910 5911 5912 5913 5913 5914 5914 5914 5915 5915 5915 5915 5915 5915 5914 5914 5914 5914 5915 5915 5915 5916 5917 5918 5919 5922 5924 5926 5927 5928 5927 5925 5928 5927 5927 5935 5939 5939 5940 5941 5941 5939 5936 5934 5934 5935 5934 5934 5933 5933 5935 5935 5935 5935 5936 5935 5935 5934 5934 5935 5934 5933 5933 5932 5932 5932 5932 5932 5932
5890 5890 5891 5892 5892 5893 5894 5896 5897 5898 5900 5901 5902 5903 5904 5905 5906 5906 5908 5909 5910 5911 5911 5912 5913 5913 5914 5914 5915 5915 5915 5915 5914 5914 5914 5914 5914 5914 5915 5915 5916 5917 5918 5920 5922 5923 5925 5928 5929 5927 5924 5927 5929 5929 5936 5940 5941 5941 5941 5942 5940 5938 5935 5935 5935 5934 5934 5934 5933 5935 5936 5936 5936 5936 5936 5935 5935 5935 5935 5935 5934 5933 5933 5933 5933 5932 5932 5932
5888 5888 5888 5889 5889 5890 5891 5892 5894 5895 5896 5898 5899 5901 5902 5903 5904 5905 5906 5907 5908 5909 5910 5911 5912 5912 5913 5914 5914 5915 5915 5915 5915 5914 5914 5914 5914 5914 5914 5915 5916 5917 5919 5920 5922 5923 5925 5928 5929 5926 5924 5927 5930 5933 5938 5940 5941 5942 5941 5942 5940 5938 5936 5936 5937 5935 5935 5934 5934 5935 5936 5936 5936 5937 5937 5937 5936 5936 5936 5936 5935 5934 5933 5933 5933 5932 5932 5932
5886 5886 5886 5886 5886 5887 5888 5889 5890 5892 5893 5895 5896 5898 5899 5901 5902 5903 5904 5905 5906 5907 5908 5909 5910 5911 5912 5913 5914 5914 5914 5914 5914 5914 5913 5913 5913 5914 5914 5915 5916 5917 5919 5920 5921 5922 5924 5927 5928 5925 5924 5928 5931 5935 5941 5942 5942 5942 5941 5941 5940 5938 5937 5937 5937 5936 5935 5934 5934 5935 5937 5937 5937 5937 5937 5937 5937 5936 5937 5936 5935 5934 5934 5934 5933 5933 5932 5933
5885 5884 5884 5883 5883 5884 5885 5885 5887 5888 5889 5891 5893 5895 5896 5898 5899 5901 5902 5903 5904 5905 5906 5907 5908 5910 5911 5911 5913 5914 5914 5913 5914 5914 5913 5913 5913 5913 5914 5915 5916 5917 5919 5920 5921 5921 5923 5926 5925 5923 5924 5928 5932 5936 5942 5945 5943 5941 5940 5940 5939 5938 5938 5937 5937 5936 5935 5935 5935 5935 5936 5938 5938 5938 5937 5937 5937 5937 5937 5937 5936 5935 5934 5934 5934 5933 5933 5933
5883 5882 5882 5881 5881 5881 5881 5882 5883 5884 5886 5887 5889 5891 5893 5894 5896 5898 5899 5901 5902 5903 5904 5905 5907 5908 5909 5910 5912 5913 5912 5912 5913 5913 5913 5913 5913 5913 5913 5915 5915 5917 5918 5920 5921 5921 5923 5925 5924 5923 5926 5930 5933 5938 5943 5944 5942 5940 5939 5939 5938 5938 5938 5937 5936 5935 5935 5935 5935 5935 5936 5937 5938 5938 5939 5939 5938 5938 5938 5938 5937 5936 5935 5935 5934 5934 5934 5933
5881 5880 5880 5879 5879 5879 5878 5879 5880 5881 5882 5884 5885 5887 5889 5891 5892 5894 5896 5898 5899 5901 5901 5903 5904 5906 5907 5909 5910 5911 5910 5911 5912 5912 5912 5912 5912 5913 5913 5914 5915 5916 5918 5920 5921 5921 5922 5924 5923 5922 5927 5932 5934 5939 5943 5941 5940 5940 5939 5937 5938 5938 5938 5937 5936 5936 5935 5936 5936 5935 5936 5936 5938 5938 5939 5939 5939 5939 5939 5938 5938 5937 5936 5936 5935 5935 5934 5934
5878 5878 5878 5877 5877 5877 5876 5876 5876 5877 5878 5880 5881 5883 5885 5887 5889 5891 5893 5895 5896 5898 5899 5901 5902 5904 5906 5907 5908 5909 5909 5910 5911 5911 5912 5912 5912 5912 5912 5913 5914 5916 5918 5919 5920 5919 5920 5923 5922 5920 5924 5931 5936 5939 5941 5940 5939 5939 5938 5937 5938 5938 5937 5937 5936 5936 5936 5936 5936 5935 5936 5936 5937 5938 5939 5939 5940 5939 5939 5939 5938 5937 5937 5937 5936 5935 5935 5935
5875 5875 5875 5875 5875 5874 5874 5873 5873 5874 5875 5876 5877 5879 5881 5883 5885 5887 5889 5891 5893 5895 5896 5898 5900 5902 5904 5905 5907 5907 5907 5909 5909 5910 5911 5911 5911 5912 5912 5912 5913 5915 5917 5918 5918 5918 5920 5922 5922 5919 5920 5926 5934 5937 5939 5939 5938 5937 5937 5937 5937 5937 5937 5937 5936 5936 5935 5935 5935 5935 5935 5936 5937 5937 5938 5939 5939 5940 5939 5939 5939 5938 5938 5937 5936 5936 5936 5936
5872 5872 5872 5872 5872 5872 5871 5871 5871 5871 5871 5872 5874 5875 5877 5879 5880 5883 5885 5888 5890 5891 5893 5895 5897 5899 5901 5902 5905 5905 5905 5907 5908 5909 5910 5910 5910 5911 5911 5912 5912 5914 5915 5916 5917 5918 5920 5921 5922 5921 5919 5922 5928 5935 5939 5938 5936 5936 5936 5936 5936 5937 5937 5936 5936 5936 5936 5936 5935 5935 5936 5936 5937 5937 5938 5938 5939 5940 5940 5939 5939 5939 5939 5938 5937 5936 5936 5937
5870 5869 5869 5869 5869 5869 5869 5869 5868 5868 5868 5869 5870 5872 5873 5874 5876 5878 5881 5883 5886 5888 5890 5892 5895 5897 5899 5900 5902 5903 5903 5905 5906 5907 5908 5909 5909 5910 5910 5911 5912 5913 5914 5914 5915 5917 5918 5920 5922 5922 5921 5921 5924 5931 5937 5936 5935 5936 5935 5936 5936 5937 5937 5936 5937 5937 5937 5937 5936 5935 5935 5936 5937 5937 5938 5938 5939 5939 5939 5939 5939 5939 5939 5939 5938 5937 5937 5937
5867 5866 5866 5866 5866 5866 5866 5866 5866 5865 5865 5865 5866 5867 5869 5870 5871 5873 5876 5879 5882 5884 5887 5889 5891 5894 5896 5898 5899 5899 5900 5903 5904 5905 5907 5907 5908 5908 5909 5910 5911 5912 5912 5913 5914 5916 5917 5918 5920 5920 5919 5920 5921 5926 5932 5933 5933 5934 5934 5935 5936 5936 5937 5936 5936 5937 5937 5937 5936 5935 5935 5935 5937 5937 5937 5938 5939 5939 5939 5939 5938 5939 5939 5939 5938 5937 5937 5937
5863 5863 5863 5863 5863 5863 5863 5863 5863 5863 5862 5862 5862 5863 5865 5866 5867 5869 5871 5874 5877 5880 5883 5885 5888 5890 5892 5894 5895 5897 5899 5901 5903 5904 5905 5906 5906 5907 5908 5909 5909 5910 5911 5912 5913 5915 5917 5917 5918 5919 5918 5919 5919 5923 5928 5929 5931 5933 5933 5935 5935 5935 5936 5936 5936 5936 5936 5937 5936 5935 5935 5935 5936 5936 5937 5938 5939 5939 5939 5939 5938 5939 5939 5939 5939 5938 5937 5937
5860 5860 5860 5860 5860 5860 5859 5860 5860 5860 5859 5859 5859 5859 5860 5861 5863 5865 5867 5869 5872 5876 5879 5881 5884 5886 5888 5890 5892 5895 5897 5899 5901 5902 5903 5903 5904 5905 5906 5907 5908 5909 5910 5910 5911 5913 5915 5915 5916 5917 5918 5919 5919 5920 5924 5927 5930 5932 5933 5934 5935 5935 5935 5935 5936 5935 5935 5936 5935 5935 5934 5935 5936 5936 5936 5937 5938 5938 5938 5938 5938 5939 5939 5938 5938 5938 5937 5937
5856 5856 5856 5856 5857 5857 5856 5856 5857 5857 5856 5856 5856 5856 5856 5857 5859 5861 5863 5866 5869 5871 5874 5877 5880 5883 5885 5887 5890 5892 5894 5896 5898 5899 5901 5901 5902 5903 5904 5905 5906 5907 5908 5908 5910 5912 5913 5913 5914 5915 5917 5918 5919 5919 5922 5928 5930 5932 5932 5933 5933 5934 5935 5935 5936 5935 5935 5935 5936 5935 5933 5934 5935 5935 5935 5936 5937 5937 5937 5937 5937 5938 5938 5938 5938 5938 5937 5937
5853 5852 5852 5852 5853 5853 5853 5853 5853 5854 5854 5852 5852 5852 5852 5852 5854 5856 5860 5863 5864 5866 5868 5872 5877 5879 5881 5883 5885 5888 5890 5893 5896 5897 5899 5899 5900 5901 5902 5903 5904 5905 5906 5907 5909 5910 5912 5912 5912 5914 5916 5917 5918 5919 5922 5927 5930 5930 5931 5932 5932 5933 5934 5935 5936 5936 5936 5936 5936 5935 5933 5932 5934 5934 5934 5935 5935 5936 5937 5937 5937 5937 5937 5937 5937 5937 5937 5937
5849 5849 5849 5849 5849 5849 5850 5850 5850 5851 5851 5849 5848 5849 5848 5848 5850 5851 5855 5859 5859 5861 5864 5868 5872 5874 5876 5879 5882 5884 5886 5889 5892 5894 5896 5897 5897 5899 5900 5901 5902 5903 5905 5906 5907 5908 5909 5910 5912 5915 5916 5917 5918 5919 5921 5925 5929 5930 5930 5933 5934 5932 5933 5935 5936 5936 5936 5936 5936 5934 5933 5932 5932 5933 5933 5933 5933 5934 5936 5937 5936 5936 5936 5937 5937 5937 5937 5937
5846 5846 5845 5845 5845 5845 5846 5846 5847 5848 5847 5846 5845 5845 5844 5845 5846 5846 5849 5854 5856 5856 5859 5864 5867 5869 5872 5876 5879 5881 5883 5886 5888 5890 5892 5894 5895 5896 5898 5899 5901 5902 5903 5904 5904 5905 5907 5909 5912 5914 5915 5916 5917 5919 5921 5923 5926 5929 5930 5933 5934 5933 5933 5933 5934 5936 5936 5936 5935 5934 5934 5933 5931 5931 5931 5932 5932 5932 5933 5935 5936 5936 5935 5936 5936 5936 5936 5936
5842 5842 5842 5842 5842 5842 5842 5843 5844 5844 5843 5842 5842 5841 5841 5842 5842 5842 5844 5849 5852 5852 5856 5861 5863 5865 5868 5871 5873 5876 5880 5883 5885 5888 5890 5891 5893 5894 5896 5897 5899 5900 5901 5901 5902 5903 5906 5909 5912 5913 5913 5915 5917 5918 5921 5923 5926 5930 5932 5933 5934 5933 5932 5931 5931 5935 5936 5935 5933 5932 5933 5933 5932 5931 5930 5930 5930 5930 5930 5931 5933 5935 5934 5935 5935 5935 5935 5935
5839 5839 5838 5838 5838 5838 5838 5839 5840 5840 5839 5839 5839 5839 5839 5839 5839 5840 5841 5845 5849 5850 5852 5857 5859 5860 5864 5866 5868 5872 5876 5881 5883 5884 5886 5888 5891 5892 5893 5895 5897 5898 5899 5900 5902 5903 5905 5908 5910 5911 5912 5914 5916 5918 5919 5920 5923 5927 5931 5933 5935 5933 5933 5932 5930 5933 5934 5934 5932 5930 5930 5931 5931 5931 5930 5930 5930 5929 5929 5929 5930 5933 5933 5933 5934 5934 5934 5934
5834 5835 5835 5834 5835 5834 5834 5835 5836 5836 5836 5835 5836 5836 5836 5836 5835 5836 5837 5839 5846 5848 5848 5851 5855 5857 5860 5861 5864 5869 5874 5878 5880 5881 5883 5886 5888 5889 5891 5893 5894 5895 5897 5898 5900 5902 5904 5906 5907 5909 5910 5911 5913 5916 5919 5919 5920 5923 5926 5930 5934 5934 5934 5932 5929 5929 5932 5932 5931 5930 5929 5929 5930 5931 5930 5930 5929 5928 5927 5927 5927 5930 5932 5932 5933 5933 5933 5933
5830 5831 5831 5830 5831 5831 5831 5831 5832 5832 5832 5832 5834 5833 5832 5832 5831 5831 5832 5833 5841 5845 5844 5848 5853 5855 5857 5858 5861 5866 5870 5873 5876 5877 5880 5883 5884 5887 5888 5889 5891 5893 5895 5897 5898 5900 5902 5903 5905 5906 5908 5909 5911 5913 5916 5919 5920 5921 5923 5927 5931 5933 5934 5932 5928 5927 5930 5931 5929 5928 5928 5927 5926 5929 5930 5929 5928 5927 5926 5925 5925 5927 5929 5931 5932 5933 5932 5931
5826 5826 5827 5826 5827 5828 5828 5826 5827 5828 5828 5829 5831 5829 5829 5829 5828 5829 5830 5831 5837 5842 5841 5845 5851 5853 5855 5856 5857 5861 5865 5869 5872 5873 5877 5880 5881 5883 5885 5886 5889 5891 5892 5893 5894 5897 5900 5900 5902 5904 5905 5907 5909 5911 5914 5917 5919 5920 5922 5925 5928 5930 5932 5933 5929 5927 5929 5931 5928 5925 5925 5924 5923 5926 5927 5926 5926 5926 5925 5924 5924 5925 5926 5928 5929 5931 5931 5931
5822 5822 5823 5822 5822 5825 5826 5823 5823 5825 5825 5826 5827 5826 5825 5826 5826 5827 5827 5829 5834 5838 5839 5843 5847 5850 5851 5851 5852 5856 5861 5864 5867 5869 5874 5877 5877 5879 5882 5884 5887 5888 5890 5890 5891 5896 5898 5898 5899 5902 5903 5904 5906 5910 5914 5916 5916 5919 5922 5924 5928 5930 5930 5932 5930 5928 5928 5928 5926 5923 5923 5922 5922 5924 5925 5923 5924 5924 5924 5924 5923 5923 5924 5925 5925 5926 5928 5930
5818 5818 5818 5819 5818 5820 5823 5820 5818 5821 5822 5822 5823 5822 5822 5822 5823 5823 5824 5827 5832 5835 5837 5840 5844 5846 5846 5846 5849 5854 5857 5858 5862 5865 5869 5873 5874 5876 5880 5882 5885 5886 5887 5888 5890 5894 5895 5897 5898 5899 5901 5903 5905 5908 5911 5913 5914 5918 5920 5921 5925 5928 5928 5929 5928 5928 5928 5926 5924 5924 5923 5921 5920 5921 5922 5921 5923 5924 5924 5923 5922 5921 5922 5922 5922 5922 5924 5927
5813 5813 5814 5815 5814 5815 5819 5816 5814 5817 5818 5818 5818 5818 5818 5819 5820 5820 5821 5826 5830 5832 5834 5837 5840 5842 5842 5843 5846 5851 5855 5856 5859 5861 5863 5868 5870 5873 5877 5879 5881 5882 5883 5885 5888 5890 5892 5896 5897 5897 5899 5902 5905 5907 5908 5910 5913 5917 5918 5919 5921 5924 5925 5925 5925 5926 5925 5924 5924 5924 5924 5922 5920 5918 5920 5921 5923 5924 5923 5922 5921 5920 5919 5919 5920 5920 5921 5923
5809 5809 5809 5811 5811 5812 5814 5811 5811 5814 5814 5813 5814 5814 5815 5816 5817 5817 5820 5826 5828 5828 5831 5834 5837 5839 5839 5840 5844 5849 5852 5853 5855 5856 5858 5862 5865 5867 5871 5872 5875 5877 5878 5881 5884 5887 5889 5892 5894 5895 5898 5901 5904 5906 5906 5908 5912 5914 5916 5918 5919 5921 5922 5922 5922 5921 5920 5921 5922 5922 5922 5921 5919 5917 5918 5920 5922 5922 5922 5921 5921 5920 5918 5917 5918 5917 5918 5920
5804 5804 5805 5806 5807 5809 5808 5806 5808 5810 5809 5809 5810 5810 5811 5812 5812 5815 5820 5824 5824 5826 5831 5834 5836 5838 5839 5839 5842 5847 5849 5849 5852 5853 5854 5858 5860 5863 5865 5867 5871 5873 5875 5878 5882 5884 5885 5888 5892 5894 5895 5898 5901 5903 5904 5905 5909 5911 5912 5914 5916 5918 5919 5919 5919 5919 5919 5918 5919 5920 5920 5919 5918 5916 5915 5917 5919 5919 5919 5920 5919 5919 5918 5917 5916 5915 5915 5918
5799 5799 5800 5801 5804 5805 5803 5801 5804 5806 5805 5806 5806 5806 5807 5807 5808 5814 5819 5821 5822 5825 5830 5833 5835 5837 5838 5838 5840 5845 5845 5846 5849 5850 5851 5855 5858 5860 5863 5866 5869 5872 5874 5878 5880 5882 5883 5885 5887 5891 5892 5894 5898 5900 5900 5902 5905 5907 5908 5909 5912 5914 5915 5915 5916 5917 5918 5916 5916 5920 5920 5917 5916 5916 5913 5913 5916 5917 5917 5917 5916 5915 5915 5916 5916 5914 5913 5915
5794 5795 5796 5796 5799 5801 5798 5797 5799 5801 5801 5802 5802 5802 5802 5803 5807 5813 5816 5818 5822 5826 5828 5832 5834 5835 5836 5837 5838 5841 5843 5844 5847 5849 5848 5850 5854 5856 5858 5862 5866 5869 5873 5876 5877 5878 5880 5881 5883 5886 5889 5891 5895 5896 5898 5901 5903 5904 5907 5907 5908 5910 5911 5912 5914 5916 5916 5914 5916 5920 5918 5915 5915 5914 5911 5910 5912 5914 5914 5914 5913 5911 5911 5913 5915 5914 5913 5913
5789 5790 5791 5792 5793 5795 5794 5793 5794 5797 5797 5797 5798 5797 5797 5801 5807 5811 5814 5818 5823 5825 5825 5829 5834 5834 5833 5835 5836 5838 5840 5842 5845 5846 5845 5845 5850 5853 5855 5858 5862 5866 5870 5872 5874 5876 5878 5880 5883 5885 5887 5889 5893 5894 5897 5901 5903 5904 5906 5906 5906 5908 5909 5911 5912 5914 5915 5914 5915 5916 5915 5913 5913 5912 5910 5909 5910 5912 5912 5910 5909 5908 5907 5908 5910 5912 5912 5911
5784 5785 5787 5788 5789 5789 5789 5789 5790 5792 5793 5793 5792 5793 5796 5801 5805 5809 5812 5817 5821 5822 5822 5825 5832 5834 5832 5832 5834 5835 5838 5840 5843 5844 5843 5842 5846 5851 5853 5856 5860 5863 5866 5869 5872 5875 5876 5880 5882 5884 5885 5887 5890 5893 5894 5897 5900 5902 5903 5902 5904 5908 5910 5910 5911 5911 5912 5912 5912 5913 5913 5912 5911 5910 5909 5908 5908 5908 5907 5906 5905 5904 5904 5904 5906 5908 5909 5908
5779 5781 5782 5784 5784 5783 5784 5785 5785 5786 5788 5788 5788 5791 5795 5799 5803 5806 5809 5813 5815 5815 5816 5819 5826 5832 5833 5831 5832 5834 5836 5838 5840 5842 5841 5840 5843 5847 5851 5854 5857 5860 5864 5867 5870 5873 5876 5879 5879 5880 5883 5885 5888 5892 5893 5894 5897 5899 5899 5901 5904 5907 5907 5907 5908 5908 5908 5909 5909 5910 5911 5911 5910 5910 5909 5907 5905 5904 5905 5904 5902 5903 5904 5904 5905 5905 5905 5904
5775 5776 5777 5778 5778 5778 5780 5781 5781 5782 5783 5784 5786 5789 5793 5796 5800 5803 5807 5809 5810 5809 5809 5813 5819 5826 5830 5831 5832 5833 5834 5836 5837 5839 5840 5839 5840 5844 5848 5852 5854 5858 5863 5867 5869 5871 5875 5878 5879 5879 5883 5885 5887 5891 5891 5891 5894 5896 5898 5901 5903 5903 5902 5902 5904 5905 5905 5906 5907 5908 5909 5909 5908 5908 5907 5906 5904 5903 5905 5905 5903 5903 5904 5905 5905 5904 5903 5901
5770 5772 5772 5772 5772 5773 5775 5776 5776 5777 5778 5780 5784 5787 5790 5793 5797 5801 5803 5805 5805 5803 5803 5807 5813 5819 5824 5830 5832 5832 5832 5833 5836 5837 5837 5837 5838 5842 5846 5850 5852 5856 5861 5864 5866 5868 5871 5875 5878 5878 5881 5884 5884 5887 5888 5887 5891 5893 5896 5899 5899 5899 5901 5902 5902 5903 5904 5904 5904 5906 5906 5906 5905 5905 5905 5904 5903 5902 5904 5905 5904 5904 5904 5905 5904 5903 5902 5901
5766 5767 5766 5766 5767 5769 5771 5771 5771 5773 5775 5778 5782 5784 5787 5790 5793 5796 5799 5801 5801 5800 5800 5804 5808 5810 5815 5822 5828 5831 5831 5832 5834 5835 5835 5835 5837 5840 5843 5847 5851 5854 5859 5861 5863 5865 5867 5871 5875 5876 5878 5879 5878 5881 5886 5886 5888 5890 5892 5894 5896 5898 5900 5901 5901 5902 5903 5903 5903 5903 5903 5901 5901 5901 5901 5901 5900 5901 5902 5903 5903 5903 5903 5903 5902 5902 5902 5901
5761 5761 5759 5761 5763 5764 5765 5765 5767 5769 5772 5775 5778 5780 5784 5786 5789 5792 5794 5796 5797 5799 5801 5803 5803 5806 5810 5817 5824 5830 5831 5830 5832 5833 5833 5833 5836 5838 5841 5845 5849 5851 5855 5858 5859 5861 5863 5867 5872 5874 5874 5874 5874 5878 5884 5886 5886 5887 5889 5890 5892 5896 5898 5898 5898 5899 5900 5901 5901 5901 5899 5898 5898 5898 5898 5898 5898 5899 5899 5899 5900 5900 5899 5898 5898 5900 5900 5899
5755 5755 5753 5756 5759 5760 5760 5762 5764 5765 5768 5771 5774 5777 5780 5782 5784 5787 5790 5791 5793 5797 5800 5802 5802 5805 5808 5810 5816 5822 5825 5826 5828 5831 5832 5832 5833 5837 5840 5843 5846 5849 5851 5854 5857 5859 5862 5864 5868 5871 5871 5872 5874 5876 5879 5883 5884 5884 5886 5887 5888 5891 5893 5895 5896 5896 5897 5898 5899 5899 5897 5895 5895 5895 5894 5894 5895 5896 5896 5895 5895 5895 5894 5894 5895 5896 5897 5896
5750 5749 5748 5751 5755 5755 5756 5758 5760 5762 5764 5768 5770 5772 5775 5777 5779 5782 5785 5787 5790 5792 5794 5797 5799 5801 5802 5804 5808 5814 5819 5821 5823 5827 5831 5832 5832 5835 5839 5841 5843 5846 5848 5851 5854 5858 5860 5861 5864 5869 5870 5870 5873 5875 5875 5878 5880 5882 5883 5886 5888 5889 5890 5892 5894 5895 5895 5895 5896 5897 5894 5891 5891 5892 5893 5892 5893 5893 5892 5892 5891 5890 5890 5892 5893 5894 5894 5894
5744 5743 5743 5746 5749 5750 5751 5754 5756 5759 5761 5764 5765 5768 5771 5772 5775 5778 5781 5783 5785 5787 5789 5793 5796 5799 5801 5804 5808 5811 5816 5818 5818 5822 5828 5831 5832 5834 5837 5839 5840 5842 5845 5847 5851 5855 5857 5857 5860 5864 5867 5867 5869 5872 5872 5872 5875 5878 5881 5883 5887 5889 5889 5889 5890 5891 5892 5892 5893 5894 5892 5889 5888 5890 5892 5892 5891 5892 5891 5890 5890 5890 5888 5888 5890 5891 5891 5890
5739 5738 5738 5740 5743 5745 5747 5749 5752 5754 5756 5759 5761 5763 5766 5768 5771 5774 5777 5779 5781 5783 5786 5789 5794 5797 5799 5802 5805 5808 5811 5813 5814 5817 5821 5828 5832 5834 5836 5838 5838 5840 5843 5845 5849 5852 5855 5856 5857 5859 5862 5862 5863 5868 5869 5869 5870 5874 5878 5880 5882 5885 5887 5887 5888 5888 5889 5889 5890 5891 5890 5888 5886 5887 5889 5889 5888 5890 5889 5887 5886 5886 5886 5886 5887 5888 5889 5888
5733 5732 5732 5733 5737 5740 5742 5744 5747 5749 5752 5754 5756 5758 5761 5764 5767 5771 5773 5776 5778 5780 5782 5784 5787 5790 5792 5795 5800 5804 5807 5810 5812 5813 5815 5819 5826 5830 5834 5836 5836 5838 5841 5844 5847 5850 5853 5854 5855 5857 5860 5861 5863 5866 5869 5869 5869 5872 5875 5878 5879 5880 5883 5885 5885 5885 5886 5887 5888 5888 5888 5887 5886 5885 5886 5886 5886 5887 5887 5884 5882 5880 5881 5882 5883 5885 5886 5886
5726 5726 5727 5729 5733 5735 5738 5740 5741 5744 5747 5749 5751 5754 5757 5759 5762 5766 5769 5773 5777 5780 5780 5779 5781 5784 5786 5790 5794 5798 5803 5806 5809 5809 5809 5810 5814 5820 5824 5830 5834 5836 5838 5841 5844 5847 5850 5851 5852 5855 5858 5859 5862 5865 5867 5868 5869 5870 5873 5876 5878 5878 5880 5881 5881 5882 5883 5884 5884 5884 5885 5885 5885 5884 5884 5884 5885 5885 5884 5883 5881 5879 5879 5878 5879 5881 5882 5882
5721 5721 5723 5726 5728 5730 5734 5736 5737 5738 5741 5743 5746 5750 5753 5756 5759 5762 5764 5768 5773 5777 5776 5775 5778 5782 5785 5788 5790 5793 5797 5800 5803 5804 5804 5804 5808 5814 5818 5823 5828 5831 5834 5838 5839 5841 5845 5848 5850 5852 5855 5856 5859 5861 5863 5865 5868 5869 5871 5874 5875 5876 5877 5878 5878 5879 5880 5880 5881 5881 5881 5882 5882 5882 5882 5882 5882 5881 5879 5878 5878 5879 5880 5878 5877 5878 5878 5877
5715 5716 5717 5720 5723 5725 5729 5732 5733 5734 5737 5738 5740 5744 5748 5751 5755 5759 5761 5762 5765 5768 5770 5773 5778 5782 5786 5789 5789 5791 5794 5796 5798 5800 5800 5800 5805 5812 5817 5821 5823 5825 5831 5835 5836 5836 5840 5843 5845 5847 5849 5852 5855 5857 5859 5861 5863 5864 5866 5869 5871 5873 5874 5875 5876 5877 5877 5877 5878 5877 5878 5879 5879 5879 5880 5879 5878 5876 5874 5874 5874 5875 5877 5878 5876 5876 5875 5874
5709 5711 5712 5714 5718 5720 5723 5726 5728 5729 5733 5736 5738 5741 5743 5745 5750 5755 5755 5755 5757 5760 5763 5768 5775 5780 5783 5784 5785 5786 5788 5789 5790 5792 5795 5797 5801 5807 5813 5816 5817 5821 5828 5833 5833 5833 5835 5838 5840 5841 5843 5847 5851 5854 5856 5856 5858 5860 5862 5865 5868 5869 5871 5873 5874 5875 5875 5875 5875 5875 5874 5875 5876 5876 5876 5874 5872 5871 5870 5869 5869 5870 5872 5874 5875 5875 5874 5872
5702 5705 5707 5708 5712 5716 5717 5720 5722 5723 5727 5732 5734 5735 5737 5740 5744 5747 5748 5749 5751 5754 5756 5762 5769 5774 5777 5777 5776 5776 5778 5780 5781 5783 5788 5792 5797 5803 5807 5810 5812 5816 5822 5827 5828 5828 5830 5833 5836 5838 5840 5842 5847 5850 5853 5855 5857 5858 5859 5862 5865 5867 5869 5870 5871 5873 5872 5872 5872 5871 5871 5871 5872 5872 5871 5869 5867 5866 5865 5864 5864 5866 5868 5871 5872 5873 5872 5870
5696 5699 5701 5703 5707 5710 5712 5714 5716 5718 5720 5723 5724 5726 5729 5733 5736 5739 5742 5745 5747 5749 5751 5754 5759 5764 5768 5770 5769 5768 5771 5773 5775 5778 5784 5790 5796 5799 5802 5805 5809 5811 5813 5818 5821 5822 5825 5828 5831 5834 5836 5838 5842 5845 5849 5853 5855 5855 5856 5858 5860 5863 5864 5865 5867 5868 5866 5865 5865 5866 5867 5868 5868 5867 5866 5865 5864 5863 5862 5862 5862 5864 5868 5870 5870 5869 5868 5868